Location: Waldport
(44.4270°N, 124.0680°W)
Time: 11:45:32
(UTC-07:00)

Amateur Radio Satellites - All Passes

Search period start: 25 July 2017 11:15
Search period end: 26 July 2017 11:15
Location: Waldport, 44.4270°N, 124.0680°W

Satellite Date Start Highest point End Downlink Frequencies (MHz)
Time Altitude Azimuth
LO-87 25 Jul 11:19:52 11:20:48 11° 90° (E) 11:21:44 145.935 - 145.965
FO-29 25 Jul 11:25:18 11:31:39 28° 270° (W) 11:38:12 435.910
NO-84 25 Jul 11:26:08 11:28:52 33° 133° (SE) 11:31:50 435.350 FM
ESTCUBE 1 25 Jul 11:27:29 11:27:48 10° 88° (E) 11:28:07 437.505/2401.250
ZACube-1 25 Jul 11:28:25 11:29:34 11° 300° (WNW) 11:30:44 437.345
PRISM 25 Jul 11:29:30 11:32:32 20° 266° (W) 11:35:37 437.425
UNISAT 6 25 Jul 11:38:53 11:41:54 17° 269° (W) 11:44:54 437.425
DUCHIFAT 1 25 Jul 11:53:12 11:57:10 39° 70° (ENE) 12:01:07 145.980
POLYITAN 1 25 Jul 11:56:03 12:00:12 53° 72° (ENE) 12:04:22 437.675
QB50P2 25 Jul 12:08:59 12:13:15 81° 78° (ENE) 12:17:33 145.880/145.840
NANOSAT C BR1 25 Jul 12:20:40 12:24:56 88° 73° (ENE) 12:29:12 145.865
EO-79 25 Jul 12:20:54 12:25:10 83° 254° (WSW) 12:29:27 145.935-145.965
BUGSAT 1 25 Jul 12:21:01 12:24:27 24° 67° (ENE) 12:27:54 437.445
AO-85 25 Jul 12:27:08 12:29:57 19° 113° (ESE) 12:32:44 145.980
DELFI C3 25 Jul 12:28:27 12:30:05 12° 298° (WNW) 12:31:44 145.870
AIST 2D 25 Jul 12:37:16 12:39:53 20° 266° (W) 12:42:29 435.315
LO-87 25 Jul 12:51:02 12:54:33 51° 286° (WNW) 12:58:02 145.935 - 145.965
SPROUT 25 Jul 12:56:42 13:00:08 23° 94° (E) 13:03:32 437.525
BEESAT 3 25 Jul 12:59:45 13:03:30 40° 118° (ESE) 13:07:18 437.485
ESTCUBE 1 25 Jul 13:00:39 13:05:12 85° 282° (WNW) 13:09:44 437.505/2401.250
NO-84 25 Jul 13:03:27 13:06:19 31° 334° (NNW) 13:09:25 435.350 FM
Oscar 19 25 Jul 13:04:08 13:08:40 33° 66° (ENE) 13:13:13 437.125/150
DUCHIFAT 1 25 Jul 13:29:52 13:32:58 20° 267° (W) 13:36:05 145.980
Gurwin Techsat 1B 25 Jul 13:33:13 13:38:08 40° 68° (ENE) 13:43:04 435.225
POLYITAN 1 25 Jul 13:33:50 13:36:17 15° 269° (W) 13:38:45 437.675
AO-7 25 Jul 13:34:26 13:39:44 19° 45° (NE) 13:45:00 .
BEESAT 2 25 Jul 13:40:37 13:44:18 37° 117° (ESE) 13:48:03 435.950
PCSat 25 Jul 13:42:45 13:47:41 34° 48° (NE) 13:52:36 145.827
SO-50 25 Jul 13:43:20 13:45:54 15° 33° (NNE) 13:48:28 436.795
VELOX 1 25 Jul 13:44:25 13:48:52 63° 101° (ESE) 13:53:16 145.980
DX 1 25 Jul 13:49:05 13:52:31 22° 94° (E) 13:55:55 434.975-435.025
50 SAT 25 Jul 13:49:58 13:53:00 28° 97° (E) 13:55:59 437.505
BUGSAT 1 25 Jul 13:55:51 13:59:40 32° 263° (W) 14:03:29 437.445
AO-85 25 Jul 14:06:15 14:10:02 42° 310° (NW) 14:13:48 145.980
UKube-1 25 Jul 14:30:15 14:34:20 39° 98° (E) 14:38:24 .
SPROUT 25 Jul 14:32:14 14:36:05 33° 291° (WNW) 14:39:54 437.525
BEESAT 3 25 Jul 14:37:53 14:41:12 24° 317° (NW) 14:44:34 437.485
ESTCUBE 1 25 Jul 14:40:19 14:41:14 11° 302° (WNW) 14:42:10 437.505/2401.250
NO-84 25 Jul 14:42:34 14:44:40 15° 356° (N) 14:46:52 435.350 FM
Oscar 19 25 Jul 14:43:20 14:47:56 33° 264° (W) 14:52:34 437.125/150
ITAMSAT 1 25 Jul 14:56:44 15:01:13 30° 65° (ENE) 15:05:43 435.822/435.867
Gurwin Techsat 1B 25 Jul 15:13:35 15:18:10 29° 265° (W) 15:22:47 435.225
BEESAT 2 25 Jul 15:18:45 15:22:09 26° 316° (NW) 15:25:35 435.950
VELOX 1 25 Jul 15:22:13 15:24:49 15° 299° (WNW) 15:27:24 145.980
SO-50 25 Jul 15:22:37 15:27:09 72° 54° (NE) 15:31:43 436.795
AO-7 25 Jul 15:22:46 15:31:02 70° 67° (ENE) 15:39:22 .
50 SAT 25 Jul 15:23:06 15:25:32 18° 293° (WNW) 15:27:58 437.505
O/OREOS (USA 219) 25 Jul 15:23:19 15:27:22 34° 106° (ESE) 15:31:25 437.305
DX 1 25 Jul 15:24:45 15:28:48 37° 291° (WNW) 15:32:50 434.975-435.025
PCSat 25 Jul 15:26:05 15:31:10 42° 247° (WSW) 15:36:14 145.827
RS-15 25 Jul 15:26:11 15:36:55 39° 106° (ESE) 15:47:47 29.354- 29.394
MOZHAYETS 4 25 Jul 15:35:19 15:38:09 16° 91° (E) 15:40:59
UKube-1 25 Jul 16:06:49 16:10:07 22° 296° (WNW) 16:13:25 .
BEESAT 25 Jul 16:15:20 16:20:00 52° 100° (E) 16:24:38 436.000
NO-84 25 Jul 16:20:27 16:23:12 20° 17° (NNE) 16:26:07 435.350 FM
ITUPSAT 1 25 Jul 16:28:54 16:33:40 70° 102° (ESE) 16:38:24 437.325
ITAMSAT 1 25 Jul 16:35:41 16:40:32 39° 262° (W) 16:45:26 435.822/435.867
CUTE-I 25 Jul 16:52:00 16:53:17 11° 54° (NE) 16:54:35 437.470
DOVE 4 25 Jul 16:57:42 17:01:48 27° 65° (ENE) 17:06:04 437.250
O/OREOS (USA 219) 25 Jul 17:03:00 17:06:48 27° 304° (NW) 17:10:38 437.305
SO-50 25 Jul 17:04:36 17:07:03 14° 250° (WSW) 17:09:32 436.795
MOZHAYETS 4 25 Jul 17:11:11 17:15:39 55° 288° (WNW) 17:20:06
XW-2D 25 Jul 17:16:40 17:18:00 12° 62° (ENE) 17:19:18 145.860 - 145.880
AO-7 25 Jul 17:17:30 17:24:25 28° 266° (W) 17:31:24 .
XW-2B 25 Jul 17:25:58 17:28:00 14° 64° (ENE) 17:30:02 145.730 - 145.750
RS-15 25 Jul 17:36:23 17:48:38 72° 310° (NW) 18:01:02 29.354- 29.394
XW-2C 25 Jul 17:42:20 17:45:13 21° 68° (ENE) 17:48:08 145.795 - 145.815
CUBESAT XI-V 25 Jul 17:47:09 17:51:50 73° 102° (ESE) 17:56:31 437.345
KKS-1 25 Jul 17:47:47 17:51:59 38° 98° (E) 17:56:09 437.445
NUDT-PHONESAT 25 Jul 17:47:53 17:50:28 18° 66° (ENE) 17:53:03 437.300
HO-68 25 Jul 17:50:17 17:55:02 19° 52° (NE) 17:59:46 435.675
BEESAT 25 Jul 17:54:00 17:57:24 20° 298° (WNW) 18:00:47 436.000
NO-84 25 Jul 17:57:27 18:01:13 66° 36° (NE) 18:05:16 435.350 FM
KAITUO 1B 25 Jul 18:02:33 18:05:43 27° 69° (ENE) 18:08:53 145.475/437.950
LilacSat-2 25 Jul 18:05:41 18:09:15 41° 72° (ENE) 18:12:49 437.200
ITUPSAT 1 25 Jul 18:08:10 18:10:57 16° 300° (WNW) 18:13:42 437.325
STARS 25 Jul 18:15:53 18:19:51 32° 97° (E) 18:23:47 437.465
CUTE 1.7 + AOD 2 25 Jul 18:18:44 18:20:05 11° 60° (ENE) 18:21:26 437.475
XW-2F 25 Jul 18:18:47 18:22:26 53° 74° (ENE) 18:26:05 145.980 - 146.000
CUTE-I 25 Jul 18:27:00 18:32:19 67° 72° (ENE) 18:37:40 437.470
DOVE 4 25 Jul 18:34:35 18:39:13 42° 263° (W) 18:44:08 437.250
XW-2D 25 Jul 18:47:59 18:51:41 59° 259° (W) 18:55:25 145.860 - 145.880
XW-2A 25 Jul 18:55:59 18:57:39 13° 65° (ENE) 18:59:20 145.665 - 145.685
YUBILEINY 25 Jul 18:56:41 19:05:06 51° 89° (E) 19:13:31 435.215
XW-2B 25 Jul 18:58:11 19:01:48 46° 261° (W) 19:05:26 145.730 - 145.750
UWE-3 25 Jul 19:01:32 19:03:05 12° 60° (ENE) 19:04:37 435.000/436.395/437.385
AAUSAT CUBESAT 2 25 Jul 19:10:48 19:12:26 12° 61° (ENE) 19:14:04 437.432
XW-2C 25 Jul 19:16:01 19:19:17 28° 264° (W) 19:22:34 145.795 - 145.815
STRAND 1 25 Jul 19:18:04 19:18:29 10° 86° (E) 19:18:53 437.568
NUDT-PHONESAT 25 Jul 19:20:49 19:24:08 32° 263° (W) 19:27:28 437.300
KKS-1 25 Jul 19:24:48 19:28:20 23° 295° (WNW) 19:31:50 437.445
CUBESAT XI-V 25 Jul 19:26:07 19:28:37 14° 299° (WNW) 19:31:07 437.345
HO-68 25 Jul 19:34:34 19:41:45 84° 72° (ENE) 19:48:58 435.675
NO-84 25 Jul 19:35:30 19:38:28 20° 231° (SW) 19:41:33 435.350 FM
KAITUO 1B 25 Jul 19:36:52 19:39:43 21° 266° (W) 19:42:35 145.475/437.950
CUBEBUG 2 25 Jul 19:38:01 19:42:26 42° 71° (ENE) 19:46:46 437.445
Oscar 11 25 Jul 19:39:33 19:40:08 10° 59° (ENE) 19:40:42 .
LilacSat-2 25 Jul 19:41:36 19:43:44 14° 269° (W) 19:45:52 437.200
CUTE 1.7 + AOD 2 25 Jul 19:51:07 19:55:17 77° 256° (WSW) 19:59:31 437.475
AO-73 25 Jul 19:51:45 19:54:45 18° 65° (ENE) 19:57:43 145.935
STARS 25 Jul 19:52:24 19:56:04 26° 294° (WNW) 19:59:43 437.465
RS-15 25 Jul 19:52:57 20:03:47 33° 339° (NNW) 20:14:32 29.354- 29.394
XW-2F 25 Jul 19:55:43 19:56:53 11° 270° (W) 19:58:03 145.980 - 146.000
SEEDS 25 Jul 20:01:54 20:06:03 88° 70° (ENE) 20:10:14 437.485
CUTE-I 25 Jul 20:09:22 20:12:51 17° 270° (W) 20:16:21 437.470
ISS 25 Jul 20:20:27 20:22:01 13° 132° (SE) 20:23:36 437.550
XW-2A 25 Jul 20:26:53 20:30:04 38° 262° (W) 20:33:15 145.665 - 145.685
Tancredo 1 25 Jul 20:30:46 20:33:32 39° 142° (SE) 20:36:19 437.200
UWE-3 25 Jul 20:34:19 20:38:54 86° 260° (W) 20:43:23 435.000/436.395/437.385
AAUSAT CUBESAT 2 25 Jul 20:43:14 20:47:20 69° 259° (W) 20:51:27 437.432
ZACube-1 25 Jul 20:46:26 20:50:52 73° 74° (ENE) 20:55:13 437.345
STRAND 1 25 Jul 20:53:17 20:58:26 83° 105° (ESE) 21:03:32 437.568
YUBILEINY 25 Jul 20:54:01 21:02:07 39° 290° (WNW) 21:10:16 435.215
AO-85 25 Jul 20:54:55 20:58:39 31° 47° (NE) 21:02:34 145.980
nSIGHT-1 25 Jul 21:00:21 21:03:14 30° 139° (SE) 21:06:08 .
Oscar 11 25 Jul 21:11:15 21:15:33 90° 353° (N) 21:19:53 .
BEESAT 3 25 Jul 21:14:48 21:18:38 41° 49° (NE) 21:22:25 437.485
CUBEBUG 2 25 Jul 21:15:36 21:19:12 22° 267° (W) 21:22:45 437.445
HO-68 25 Jul 21:25:28 21:30:17 19° 270° (W) 21:35:09 435.675
AO-73 25 Jul 21:26:24 21:30:40 47° 261° (W) 21:34:51 145.935
DELFI C3 25 Jul 21:38:29 21:42:13 44° 72° (ENE) 21:46:00 145.870
EO-88 25 Jul 21:53:33 21:56:57 39° 72° (ENE) 22:00:22 145.990 - 145.960
ISS 25 Jul 21:54:48 21:58:03 89° 311° (NW) 22:01:19 437.550
BEESAT 2 25 Jul 21:56:27 22:00:19 40° 49° (NE) 22:04:08 435.950
Tancredo 1 25 Jul 22:06:15 22:08:57 33° 340° (NNW) 22:11:41 437.200
RS-15 25 Jul 22:10:41 22:21:10 31° 14° (NNE) 22:31:21 29.354- 29.394
ZACube-1 25 Jul 22:26:08 22:27:36 11° 271° (W) 22:29:03 437.345
ESTCUBE 1 25 Jul 22:27:44 22:29:42 13° 60° (ENE) 22:31:41 437.505/2401.250
FO-29 25 Jul 22:32:34 22:39:34 53° 98° (E) 22:45:42 435.910
STRAND 1 25 Jul 22:34:10 22:36:55 15° 302° (WNW) 22:39:40 437.568
TIGRISAT 25 Jul 22:34:54 22:38:25 24° 94° (E) 22:41:51 435.000
AO-85 25 Jul 22:35:13 22:39:02 33° 243° (WSW) 22:43:04 145.980
nSIGHT-1 25 Jul 22:36:27 22:39:33 43° 337° (NNW) 22:42:40 .
BEESAT 3 25 Jul 22:52:58 22:55:57 20° 247° (WSW) 22:58:52 437.485
PRISM 25 Jul 23:07:41 23:11:44 46° 100° (E) 23:15:45 437.425
DELFI C3 25 Jul 23:14:53 23:17:13 15° 269° (W) 23:19:35 145.870
UNISAT 6 25 Jul 23:26:54 23:31:16 87° 281° (W) 23:35:31 437.425
LO-87 25 Jul 23:27:58 23:31:35 76° 76° (ENE) 23:35:15 145.935 - 145.965
EO-88 25 Jul 23:28:48 23:30:48 14° 268° (W) 23:32:50 145.990 - 145.960
ISS 25 Jul 23:32:02 23:34:51 26° 348° (NNW) 23:37:40 437.550
BEESAT 2 25 Jul 23:34:41 23:37:50 22° 247° (WSW) 23:40:57 435.950
Tancredo 1 25 Jul 23:42:42 23:44:56 19° 360° (N) 23:47:11 437.200
SPROUT 25 Jul 23:51:35 23:54:57 23° 66° (ENE) 23:58:19 437.525
O/OREOS (USA 219) 25 Jul 23:53:34 23:55:31 13° 47° (NE) 23:57:29 437.305
QB50P2 25 Jul 23:54:23 23:55:45 11° 89° (E) 23:57:07 145.880/145.840
M-CUBED/EXP-1 PRIME 25 Jul 23:58:33 00:03:09 61° 106° (ESE) 00:07:45 437.505
AIST 2D 25 Jul 23:59:51 00:02:47 24° 95° (E) 00:05:41 435.315
ESTCUBE 1 26 Jul 00:01:25 00:05:53 77° 257° (WSW) 00:10:23 437.505/2401.250
NANOSAT C BR1 26 Jul 00:05:07 00:06:52 12° 89° (E) 00:08:37 145.865
EO-79 26 Jul 00:05:20 00:07:33 14° 90° (E) 00:09:45 145.935-145.965
TIGRISAT 26 Jul 00:11:17 00:15:09 32° 291° (WNW) 00:18:57 435.000
nSIGHT-1 26 Jul 00:13:54 00:16:31 22° 357° (N) 00:19:08 .
FO-29 26 Jul 00:18:01 00:24:13 32° 300° (WNW) 00:29:50 435.910
50 SAT 26 Jul 00:23:51 00:25:45 14° 65° (ENE) 00:27:40 437.505
RS-15 26 Jul 00:24:46 00:36:53 61° 45° (NE) 00:48:20 29.354- 29.394
VELOX 1 26 Jul 00:42:49 00:47:12 67° 74° (ENE) 00:51:38 145.980
PRISM 26 Jul 00:43:52 00:46:39 17° 297° (WNW) 00:49:25 437.425
DX 1 26 Jul 00:46:06 00:49:36 24° 65° (ENE) 00:53:09 434.975-435.025
ISS 26 Jul 01:09:17 01:12:01 24° 8° (N) 01:14:45 437.550
DUCHIFAT 1 26 Jul 01:10:39 01:14:47 57° 100° (E) 01:18:52 145.980
POLYITAN 1 26 Jul 01:14:38 01:18:51 80° 102° (ESE) 01:23:02 437.675
Tancredo 1 26 Jul 01:18:12 01:20:56 32° 20° (NNE) 01:23:38 437.200
UKube-1 26 Jul 01:25:59 01:30:01 41° 70° (ENE) 01:34:06 .
SPROUT 26 Jul 01:26:41 01:30:39 36° 263° (W) 01:34:38 437.525
QB50P2 26 Jul 01:27:47 01:31:59 67° 286° (WNW) 01:36:09 145.880/145.840
O/OREOS (USA 219) 26 Jul 01:31:06 01:35:37 89° 52° (NE) 01:40:08 437.305
AIST 2D 26 Jul 01:33:11 01:35:51 21° 292° (WNW) 01:38:32 435.315
M-CUBED/EXP-1 PRIME 26 Jul 01:33:56 01:37:07 19° 302° (WNW) 01:40:18 437.505
BUGSAT 1 26 Jul 01:35:42 01:39:20 30° 96° (E) 01:42:54 437.445
NANOSAT C BR1 26 Jul 01:38:50 01:43:00 62° 286° (WNW) 01:47:07 145.865
EO-79 26 Jul 01:39:31 01:43:39 55° 288° (WNW) 01:47:45 145.935-145.965
Gurwin Techsat 1B 26 Jul 01:49:20 01:51:46 13° 88° (E) 01:54:11 435.225
nSIGHT-1 26 Jul 01:50:37 01:53:34 31° 17° (NNE) 01:56:30 .
BEESAT 26 Jul 01:50:37 01:50:52 10° 56° (NE) 01:51:06 436.000
50 SAT 26 Jul 01:55:01 01:58:11 36° 262° (W) 02:01:23 437.505
ITUPSAT 1 26 Jul 02:02:24 02:04:38 13° 58° (ENE) 02:06:52 437.325
DX 1 26 Jul 02:21:38 02:25:37 35° 262° (W) 02:29:39 434.975-435.025
VELOX 1 26 Jul 02:22:09 02:24:06 13° 271° (W) 02:26:03 145.980
RS-15 26 Jul 02:37:53 02:49:04 47° 250° (WSW) 02:59:43 29.354- 29.394
MOZHAYETS 4 26 Jul 02:38:43 02:42:01 20° 64° (ENE) 02:45:18
ISS 26 Jul 02:45:40 02:48:55 64° 27° (NNE) 02:52:10 437.550
DUCHIFAT 1 26 Jul 02:47:39 02:49:59 15° 298° (WNW) 02:52:19 145.980
Oscar 19 26 Jul 02:52:19 02:57:30 75° 103° (ESE) 03:02:41 437.125/150
POLYITAN 1 26 Jul 02:52:45 02:54:00 11° 300° (WNW) 02:55:15 437.675
Tancredo 1 26 Jul 02:53:34 02:56:22 40° 218° (SW) 02:59:09 437.200
UKube-1 26 Jul 03:03:04 03:06:13 20° 267° (W) 03:09:24 .
BUGSAT 1 26 Jul 03:11:15 03:14:34 24° 294° (WNW) 03:17:50 437.445
CUBESAT XI-V 26 Jul 03:18:45 03:19:44 11° 58° (ENE) 03:20:43 437.345
BEESAT 26 Jul 03:23:01 03:27:46 74° 74° (ENE) 03:32:33 436.000
AO-7 26 Jul 03:24:04 03:29:36 19° 89° (E) 03:35:05 .
nSIGHT-1 26 Jul 03:26:56 03:30:07 56° 215° (SW) 03:33:16 .
Gurwin Techsat 1B 26 Jul 03:27:01 03:32:23 84° 285° (WNW) 03:37:42 435.225
ITUPSAT 1 26 Jul 03:36:59 03:41:47 84° 257° (WSW) 03:46:36 437.325
MOZHAYETS 4 26 Jul 04:14:25 04:18:50 47° 261° (W) 04:23:15
ISS 26 Jul 04:22:44 04:25:07 19° 225° (SW) 04:27:29 437.550
PCSat 26 Jul 04:27:27 04:31:15 20° 106° (ESE) 04:35:03 145.827
Oscar 19 26 Jul 04:33:04 04:36:13 17° 301° (WNW) 04:39:22 437.125/150
ITAMSAT 1 26 Jul 04:46:17 04:51:29 65° 102° (ESE) 04:56:38 435.822/435.867
KKS-1 26 Jul 04:47:05 04:51:19 44° 70° (ENE) 04:55:36 437.445
CUBESAT XI-V 26 Jul 04:51:44 04:56:19 84° 78° (ENE) 05:00:57 437.345
BEESAT 26 Jul 05:03:52 05:06:04 13° 271° (W) 05:08:17 436.000
YUBILEINY 26 Jul 05:04:58 05:12:14 28° 64° (ENE) 05:19:24 435.215
Gurwin Techsat 1B 26 Jul 05:09:01 05:11:30 13° 304° (NW) 05:14:00 435.225
STARS 26 Jul 05:13:43 05:17:46 36° 69° (ENE) 05:21:50 437.465
AO-7 26 Jul 05:15:03 05:23:29 87° 109° (ESE) 05:31:50 .
SO-50 26 Jul 05:40:20 05:42:51 15° 110° (ESE) 05:45:21 436.795
PCSat 26 Jul 06:08:43 06:14:07 66° 304° (NW) 06:19:32 145.827
XW-2D 26 Jul 06:20:21 06:21:57 12° 90° (E) 06:23:32 145.860 - 145.880
KKS-1 26 Jul 06:24:49 06:28:05 20° 267° (W) 06:31:21 437.445
ITAMSAT 1 26 Jul 06:26:52 06:30:26 19° 300° (WNW) 06:33:59 435.822/435.867
XW-2B 26 Jul 06:29:52 06:32:09 15° 92° (E) 06:34:26 145.730 - 145.750
DOVE 4 26 Jul 06:31:25 06:36:35 52° 99° (E) 06:41:32 437.250
STRAND 1 26 Jul 06:33:29 06:37:10 20° 61° (ENE) 06:40:50 437.568
CUBESAT XI-V 26 Jul 06:33:31 06:34:18 10° 273° (W) 06:35:06 437.345
CUTE-I 26 Jul 06:43:01 06:47:15 23° 93° (E) 06:51:25 437.470
XW-2C 26 Jul 06:46:36 06:49:43 24° 95° (E) 06:52:49 145.795 - 145.815
NUDT-PHONESAT 26 Jul 06:49:37 06:52:19 19° 94° (E) 06:55:00 437.300
STARS 26 Jul 06:50:36 06:54:11 24° 266° (W) 06:57:46 437.465
YUBILEINY 26 Jul 07:01:08 07:09:51 71° 266° (W) 07:18:29 435.215
HO-68 26 Jul 07:02:56 07:06:19 14° 86° (E) 07:09:41 435.675
KAITUO 1B 26 Jul 07:05:24 07:08:43 30° 96° (E) 07:12:02 145.475/437.950
AO-7 26 Jul 07:08:53 07:15:17 25° 310° (NW) 07:21:40 .
LilacSat-2 26 Jul 07:11:02 07:14:44 50° 99° (E) 07:18:26 437.200
SO-50 26 Jul 07:18:14 07:22:46 70° 308° (NW) 07:27:16 436.795
XW-2F 26 Jul 07:22:58 07:26:42 63° 101° (E) 07:30:26 145.980 - 146.000
CUTE 1.7 + AOD 2 26 Jul 07:35:13 07:37:55 16° 91° (E) 07:40:37 437.475
SEEDS 26 Jul 07:45:28 07:47:31 13° 90° (E) 07:49:34 437.485
XW-2D 26 Jul 07:52:46 07:56:26 50° 287° (WNW) 08:00:05 145.860 - 145.880
PCSat 26 Jul 07:55:27 07:58:35 15° 326° (NW) 08:01:45 145.827
XW-2B 26 Jul 08:02:58 08:06:31 39° 288° (WNW) 08:10:02 145.730 - 145.750
DOVE 4 26 Jul 08:09:47 08:13:50 23° 297° (WNW) 08:17:48 437.250
STRAND 1 26 Jul 08:10:48 08:15:53 60° 259° (W) 08:21:00 437.568
XW-2C 26 Jul 08:20:44 08:23:51 25° 291° (WNW) 08:26:58 145.795 - 145.815
CUTE-I 26 Jul 08:22:22 08:27:33 50° 290° (WNW) 08:32:40 437.470
NUDT-PHONESAT 26 Jul 08:23:00 08:26:15 30° 290° (WNW) 08:29:29 437.300
UWE-3 26 Jul 08:23:30 08:26:05 16° 91° (E) 08:28:38 435.000/436.395/437.385
AAUSAT CUBESAT 2 26 Jul 08:24:32 08:27:12 16° 91° (E) 08:29:52 437.432
ZACube-1 26 Jul 08:35:14 08:36:35 11° 89° (E) 08:37:55 437.345
KAITUO 1B 26 Jul 08:39:47 08:42:33 20° 293° (WNW) 08:45:19 145.475/437.950
FO-29 26 Jul 08:44:57 08:51:41 34° 61° (ENE) 08:58:29 435.910
LilacSat-2 26 Jul 08:46:42 08:48:36 14° 296° (WNW) 08:50:31 437.200
HO-68 26 Jul 08:47:59 08:55:10 77° 104° (ESE) 09:02:20 435.675
UNISAT 6 26 Jul 08:53:16 08:55:09 12° 60° (ENE) 08:57:00 437.425
Oscar 11 26 Jul 08:58:01 09:00:29 15° 90° (E) 09:02:57 .
XW-2F 26 Jul 08:59:16 09:00:19 11° 298° (WNW) 09:01:23 145.980 - 146.000
YUBILEINY 26 Jul 09:00:56 09:04:56 14° 288° (WNW) 09:08:55 435.215
SO-50 26 Jul 09:01:34 09:04:02 14° 328° (NNW) 09:06:30 436.795
CUBEBUG 2 26 Jul 09:03:30 09:07:46 75° 102° (ESE) 09:11:55 437.445
CUTE 1.7 + AOD 2 26 Jul 09:09:56 09:14:01 47° 288° (WNW) 09:18:06 437.475
AO-73 26 Jul 09:12:49 09:16:20 26° 95° (E) 09:19:49 145.935
M-CUBED/EXP-1 PRIME 26 Jul 09:15:23 09:16:02 10° 52° (NE) 09:16:42 437.505
XW-2A 26 Jul 09:19:22 09:22:34 46° 287° (WNW) 09:25:47 145.665 - 145.685
SEEDS 26 Jul 09:19:25 09:23:34 58° 286° (WNW) 09:27:44 437.485
TIGRISAT 26 Jul 09:34:43 09:38:38 28° 67° (ENE) 09:42:30 435.000
PRISM 26 Jul 09:58:14 10:02:05 41° 70° (ENE) 10:05:58 437.425
UWE-3 26 Jul 09:58:48 10:02:49 46° 288° (WNW) 10:06:46 435.000/436.395/437.385
AAUSAT CUBESAT 2 26 Jul 09:58:53 10:02:53 46° 288° (WNW) 10:06:53 437.432
ZACube-1 26 Jul 10:09:12 10:13:19 64° 286° (WNW) 10:17:24 437.345
UNISAT 6 26 Jul 10:26:34 10:31:13 84° 259° (W) 10:35:48 437.425
FO-29 26 Jul 10:28:37 10:36:12 62° 260° (W) 10:44:02 435.910
Oscar 11 26 Jul 10:32:44 10:36:57 54° 287° (WNW) 10:41:09 .
HO-68 26 Jul 10:36:44 10:42:11 24° 305° (NW) 10:47:38 435.675
AIST 2D 26 Jul 10:37:01 10:38:37 13° 65° (ENE) 10:40:12 435.315
CUBEBUG 2 26 Jul 10:42:14 10:43:45 12° 300° (WNW) 10:45:16 437.445
M-CUBED/EXP-1 PRIME 26 Jul 10:46:01 10:49:42 87° 251° (WSW) 10:53:44 437.505
DELFI C3 26 Jul 10:48:03 10:52:01 58° 100° (E) 10:55:59 145.870
QB50P2 26 Jul 10:48:45 10:50:26 12° 60° (ENE) 10:52:07 145.880/145.840
AO-73 26 Jul 10:49:00 10:52:31 27° 292° (WNW) 10:56:01 145.935
NO-84 26 Jul 10:53:21 10:55:52 25° 131° (SE) 10:58:32 435.350 FM
EO-88 26 Jul 10:53:55 10:57:23 40° 99° (E) 11:00:50 145.990 - 145.960
NANOSAT C BR1 26 Jul 10:59:03 11:00:57 13° 61° (ENE) 11:02:51 145.865
EO-79 26 Jul 10:59:33 11:01:51 14° 62° (ENE) 11:04:09 145.935-145.965
